Content
SEND FEEDBACK

Canada Flag

DRUMHELLER, ALBERTA


Home > North America > Canada > Alberta
Elevation: 2254 feet     Latitude: 51 28N     Longitude: 112 43W

WEATHER
 
SELECT A DAY
Number of Records: 154,211;   Date Range: 1/1/95 - 3/22/16
 
SHARE

PRINT THIS DATA

[ ← Previous Day ]
WEATHER ALMANAC - JUNE 30, 2013
[ Next Day → ]
[ °C ]   °F
We're sorry. There is no daily almanac available for Drumheller, Alberta on June 30, 2013.
WEATHER BY HOUR - JUNE 30, 2013
[ °C ]   °F
Local TimeTemperatureDewpointHumidityBarometerVisibilityWind DirectionWind SpeedGust SpeedPrecipitationEventsConditions
12:00 AM68.2 °F55.4 °F64 %29.99 inSSE (150°)11.5 mph
1:00 AM66.9 °F54.0 °F63 %29.99 inSSE (150°)10.4 mph
2:00 AM65.7 °F57.9 °F76 %30.04 inNE (50°)8.1 mph0.27 in
3:00 AM61.5 °F58.5 °F90 %30.03 inENE (60°)11.5 mph0.17 in
4:00 AM61.7 °F58.5 °F89 %30.00 inENE (70°)12.7 mph0.12 in
5:00 AM63.1 °F57.6 °F82 %29.99 inSE (140°)5.8 mph0.02 in
6:00 AM61.3 °F58.5 °F90 %30.03 inNW (320°)5.8 mph
6:00 AM61.0 °F58.0 °F88 %30.03 inNW (320°)5.8 mph
7:00 AM61.0 °F58.3 °F91 %30.06 inNW (310°)3.5 mph
8:00 AM62.2 °F58.8 °F89 %30.06 inNW (310°)2.3 mph
9:00 AM64.8 °F60.1 °F85 %30.07 inNNW (330°)3.5 mph
10:00 AM66.6 °F60.4 °F81 %30.08 inNNW (340°)3.5 mph
11:00 AM68.5 °F59.5 °F73 %30.08 inNorth (350°)2.3 mph
12:00 PM70.5 °F60.4 °F70 %30.09 inNNW (330°)4.6 mph
12:00 PM71.0 °F60.0 °F61 %30.09 inNNW (330°)4.6 mph
1:00 PM72.0 °F60.1 °F66 %30.08 inNorth (360°)5.8 mph
2:00 PM73.2 °F60.6 °F65 %30.09 inNNE (30°)3.5 mph
3:00 PM75.0 °F60.4 °F60 %30.10 inNorth (360°)3.5 mph
4:00 PM74.8 °F62.8 °F66 %30.09 inNNE (20°)4.6 mph
5:00 PM77.5 °F61.3 °F57 %30.09 inNE (40°)5.8 mph
6:00 PM77.4 °F62.1 °F59 %30.08 inNE (50°)3.5 mph
6:00 PM77.0 °F62.0 °F51 %30.08 inNE (50°)3.5 mph
7:00 PM77.4 °F61.5 °F58 %30.09 inNE (40°)3.5 mph
8:00 PM76.8 °F61.5 °F59 %30.09 inEast (80°)2.3 mph
9:00 PM74.3 °F62.6 °F67 %30.09 inESE (110°)2.3 mph
10:00 PM68.2 °F61.3 °F79 %30.11 inSouth (180°)2.3 mph
11:00 PM64.4 °F61.0 °F89 %30.13 inSouth (180°)1.2 mph
Hourly data recorded from CWDZ, located miles away from Drumheller, Alberta




STORIES FROM OUR PARTNERS